Time,TemperatureF,DewpointF,PressureIn,WindDirection,WindDirectionDegrees,WindSpeedMPH,WindSpeedGustMPH,Humidity,HourlyPrecipIn,Conditions,Clouds,dailyrainin,SoftwareType,DateUTC
2013-08-23 00:00:00,93.1,82.7,29.54,East,90,1.6,3.4,72,0.00,,,0.00,WUHU216HW,2013-08-22 21:00:00,
2013-08-23 00:05:00,92.9,82.5,29.54,ESE,113,1.1,2.5,72,0.00,,,0.00,WUHU216HW,2013-08-22 21:05:00,
2013-08-23 00:10:00,92.9,83.0,29.54,East,90,2.5,2.5,73,0.00,,,0.00,WUHU216HW,2013-08-22 21:10:00,
2013-08-23 00:15:00,92.9,83.0,29.55,NNE,23,3.4,4.0,73,0.00,,,0.00,WUHU216HW,2013-08-22 21:15:00,
2013-08-23 00:20:00,92.9,83.0,29.55,NE,45,1.3,4.0,73,0.00,,,0.00,WUHU216HW,2013-08-22 21:20:00,
2013-08-23 00:25:00,92.9,83.0,29.54,North,0,1.3,4.0,73,0.00,,,0.00,WUHU216HW,2013-08-22 21:25:00,
2013-08-23 00:30:00,92.7,82.8,29.54,NNE,23,0.7,2.5,73,0.00,,,0.00,WUHU216HW,2013-08-22 21:30:00,
2013-08-23 00:35:00,92.5,82.6,29.54,NNE,23,0.4,1.8,73,0.00,,,0.00,WUHU216HW,2013-08-22 21:35:00,
2013-08-23 00:40:00,92.5,82.6,29.54,North,0,1.1,1.8,73,0.00,,,0.00,WUHU216HW,2013-08-22 21:40:00,
2013-08-23 00:45:00,92.3,82.5,29.54,NNW,338,1.3,3.4,73,0.00,,,0.00,WUHU216HW,2013-08-22 21:45:00,
2013-08-23 00:50:00,92.3,82.5,29.54,NNW,338,1.8,3.4,73,0.00,,,0.00,WUHU216HW,2013-08-22 21:50:00,
2013-08-23 00:55:00,92.2,82.3,29.54,North,0,1.8,3.4,73,0.00,,,0.00,WUHU216HW,2013-08-22 21:55:00,
2013-08-23 01:00:00,92.2,82.3,29.54,North,0,1.1,3.6,73,0.00,,,0.00,WUHU216HW,2013-08-22 22:00:00,
2013-08-23 01:05:00,92.2,82.3,29.53,NW,315,1.6,4.3,73,0.00,,,0.00,WUHU216HW,2013-08-22 22:05:00,
2013-08-23 01:10:00,92.0,82.1,29.53,North,0,0.9,4.3,73,0.00,,,0.00,WUHU216HW,2013-08-22 22:10:00,
2013-08-23 01:15:00,91.8,81.5,29.53,NNW,338,0.0,2.7,72,0.00,,,0.00,WUHU216HW,2013-08-22 22:15:00,
2013-08-23 01:20:00,91.8,81.9,29.53,NW,315,2.5,3.1,73,0.00,,,0.00,WUHU216HW,2013-08-22 22:20:00,
2013-08-23 01:25:00,91.6,81.7,29.53,NW,315,4.0,4.0,73,0.00,,,0.00,WUHU216HW,2013-08-22 22:25:00,
2013-08-23 01:30:00,91.4,81.9,29.53,NW,315,2.5,4.0,74,0.00,,,0.00,WUHU216HW,2013-08-22 22:30:00,
2013-08-23 01:35:00,91.4,81.9,29.53,NW,315,1.3,4.0,74,0.00,,,0.00,WUHU216HW,2013-08-22 22:35:00,
2013-08-23 01:40:00,91.3,81.8,29.53,NNW,338,2.5,4.0,74,0.00,,,0.00,WUHU216HW,2013-08-22 22:40:00,
2013-08-23 01:45:00,91.3,81.8,29.53,North,0,1.6,3.6,74,0.00,,,0.00,WUHU216HW,2013-08-22 22:45:00,
2013-08-23 01:50:00,91.1,81.6,29.53,NW,315,2.9,2.9,74,0.00,,,0.00,WUHU216HW,2013-08-22 22:50:00,
2013-08-23 01:55:00,91.1,81.6,29.53,NW,315,1.8,3.4,74,0.00,,,0.00,WUHU216HW,2013-08-22 22:55:00,
2013-08-23 02:00:00,91.1,81.6,29.53,NW,315,0.4,3.4,74,0.00,,,0.00,WUHU216HW,2013-08-22 23:00:00,
2013-08-23 02:05:00,91.1,81.6,29.53,North,0,1.6,3.4,74,0.00,,,0.00,WUHU216HW,2013-08-22 23:05:00,
2013-08-23 02:10:00,90.9,81.5,29.53,North,0,4.0,4.0,74,0.00,,,0.00,WUHU216HW,2013-08-22 23:10:00,
2013-08-23 02:15:00,91.1,81.6,29.53,North,0,1.3,4.0,74,0.00,,,0.00,WUHU216HW,2013-08-22 23:15:00,
2013-08-23 02:20:00,90.9,81.5,29.54,ESE,113,2.7,4.0,74,0.00,,,0.00,WUHU216HW,2013-08-22 23:20:00,
2013-08-23 02:25:00,91.1,81.6,29.54,East,90,2.5,3.6,74,0.00,,,0.00,WUHU216HW,2013-08-22 23:25:00,
2013-08-23 02:30:00,91.1,81.2,29.54,ESE,113,0.2,3.6,73,0.00,,,0.00,WUHU216HW,2013-08-22 23:30:00,
2013-08-23 02:35:00,91.1,81.2,29.54,NNE,23,0.2,3.1,73,0.00,,,0.00,WUHU216HW,2013-08-22 23:35:00,
2013-08-23 02:40:00,91.1,81.2,29.54,North,0,1.6,3.6,73,0.00,,,0.00,WUHU216HW,2013-08-22 23:40:00,
2013-08-23 02:45:00,90.9,81.0,29.54,North,0,1.1,3.6,73,0.00,,,0.00,WUHU216HW,2013-08-22 23:45:00,
2013-08-23 02:50:00,91.1,80.8,29.54,North,0,0.7,2.2,72,0.00,,,0.00,WUHU216HW,2013-08-22 23:50:00,
2013-08-23 02:55:00,90.9,80.7,29.54,North,0,0.0,1.1,72,0.00,,,0.00,WUHU216HW,2013-08-22 23:55:00,
2013-08-23 03:00:00,90.7,80.5,29.54,North,0,0.4,1.1,72,0.00,,,0.00,WUHU216HW,2013-08-23 00:00:00,
2013-08-23 03:05:00,90.7,80.5,29.54,North,0,0.0,0.7,72,0.00,,,0.00,WUHU216HW,2013-08-23 00:05:00,
2013-08-23 03:10:00,90.7,80.5,29.54,NNW,338,0.4,1.1,72,0.00,,,0.00,WUHU216HW,2013-08-23 00:10:00,
2013-08-23 03:15:00,90.9,80.7,29.54,NNW,338,0.4,1.8,72,0.00,,,0.00,WUHU216HW,2013-08-23 00:15:00,
2013-08-23 03:20:00,90.9,80.7,29.54,NNW,338,0.9,1.8,72,0.00,,,0.00,WUHU216HW,2013-08-23 00:20:00,
2013-08-23 03:25:00,90.7,80.5,29.55,NNW,338,0.0,1.1,72,0.00,,,0.00,WUHU216HW,2013-08-23 00:25:00,
2013-08-23 03:30:00,90.7,80.5,29.55,ENE,68,0.9,1.3,72,0.00,,,0.00,WUHU216HW,2013-08-23 00:30:00,
2013-08-23 03:35:00,90.7,80.5,29.55,SSE,158,0.4,1.3,72,0.00,,,0.00,WUHU216HW,2013-08-23 00:35:00,
2013-08-23 03:40:00,90.7,80.5,29.55,ESE,113,1.3,1.8,72,0.00,,,0.00,WUHU216HW,2013-08-23 00:40:00,
2013-08-23 03:45:00,90.7,80.0,29.55,ESE,113,2.2,2.2,71,0.00,,,0.00,WUHU216HW,2013-08-23 00:45:00,
2013-08-23 03:50:00,90.7,80.0,29.55,ESE,113,2.0,2.2,71,0.00,,,0.00,WUHU216HW,2013-08-23 00:50:00,
2013-08-23 03:55:00,90.7,79.7,29.55,East,90,0.7,2.5,70,0.00,,,0.00,WUHU216HW,2013-08-23 00:55:00,
2013-08-23 04:00:00,90.7,79.7,29.55,East,90,0.2,2.5,70,0.00,,,0.00,WUHU216HW,2013-08-23 01:00:00,
2013-08-23 04:05:00,90.7,79.2,29.55,ESE,113,2.0,2.0,69,0.00,,,0.00,WUHU216HW,2013-08-23 01:05:00,
2013-08-23 04:10:00,90.7,78.7,29.55,East,90,0.7,2.0,68,0.00,,,0.00,WUHU216HW,2013-08-23 01:10:00,
2013-08-23 04:15:00,90.7,78.7,29.55,East,90,1.1,2.0,68,0.00,,,0.00,WUHU216HW,2013-08-23 01:15:00,
2013-08-23 04:20:00,90.7,78.2,29.56,East,90,1.8,2.2,67,0.00,,,0.00,WUHU216HW,2013-08-23 01:20:00,
2013-08-23 04:25:00,90.7,78.2,29.56,ESE,113,0.4,2.2,67,0.00,,,0.00,WUHU216HW,2013-08-23 01:25:00,
2013-08-23 04:30:00,90.7,79.2,29.56,ESE,113,0.0,1.3,69,0.00,,,0.00,WUHU216HW,2013-08-23 01:30:00,
2013-08-23 04:35:00,90.4,78.8,29.56,SSE,158,1.6,1.6,69,0.00,,,0.00,WUHU216HW,2013-08-23 01:35:00,
2013-08-23 04:40:00,90.4,78.8,29.56,SSE,158,0.0,1.6,69,0.00,,,0.00,WUHU216HW,2013-08-23 01:40:00,
2013-08-23 04:45:00,90.2,79.1,29.56,SSE,158,0.7,1.6,70,0.00,,,0.00,WUHU216HW,2013-08-23 01:45:00,
2013-08-23 04:50:00,90.0,79.4,29.56,WSW,248,0.0,0.9,71,0.00,,,0.00,WUHU216HW,2013-08-23 01:50:00,
2013-08-23 04:55:00,90.0,79.4,29.56,WSW,248,0.0,0.9,71,0.00,,,0.00,WUHU216HW,2013-08-23 01:55:00,
2013-08-23 05:00:00,90.0,79.4,29.57,SSE,158,1.8,1.8,71,0.00,,,0.00,WUHU216HW,2013-08-23 02:00:00,
2013-08-23 05:05:00,90.0,79.4,29.57,WSW,248,0.4,2.5,71,0.00,,,0.00,WUHU216HW,2013-08-23 02:05:00,
2013-08-23 05:10:00,90.0,79.4,29.57,WSW,248,0.2,2.5,71,0.00,,,0.00,WUHU216HW,2013-08-23 02:10:00,
2013-08-23 05:15:00,90.0,79.4,29.57,WSW,248,1.1,2.2,71,0.00,,,0.00,WUHU216HW,2013-08-23 02:15:00,
2013-08-23 05:20:00,90.2,79.6,29.57,WSW,248,2.7,2.7,71,0.00,,,0.00,WUHU216HW,2013-08-23 02:20:00,
2013-08-23 05:25:00,90.2,79.9,29.57,WSW,248,0.9,3.1,72,0.00,,,0.00,WUHU216HW,2013-08-23 02:25:00,
2013-08-23 05:30:00,90.0,79.7,29.58,SW,225,2.2,3.1,72,0.00,,,0.00,WUHU216HW,2013-08-23 02:30:00,
2013-08-23 05:35:00,90.0,79.7,29.57,SW,225,0.4,2.5,72,0.00,,,0.00,WUHU216HW,2013-08-23 02:35:00,
2013-08-23 05:40:00,89.8,79.7,29.58,SW,225,1.3,2.2,72,0.00,,,0.00,WUHU216HW,2013-08-23 02:40:00,
2013-08-23 05:45:00,89.8,79.7,29.58,NW,315,2.0,2.2,72,0.00,,,0.00,WUHU216HW,2013-08-23 02:45:00,
2013-08-23 05:50:00,89.6,79.8,29.58,West,270,3.6,3.8,73,0.00,,,0.00,WUHU216HW,2013-08-23 02:50:00,
2013-08-23 05:55:00,89.6,79.8,29.58,WNW,293,1.8,4.0,73,0.00,,,0.00,WUHU216HW,2013-08-23 02:55:00,
2013-08-23 06:00:00,89.3,79.5,29.58,West,270,2.0,4.0,73,0.00,,,0.00,WUHU216HW,2013-08-23 03:00:00,
2013-08-23 06:05:00,89.1,79.3,29.58,West,270,3.4,3.4,73,0.00,,,0.00,WUHU216HW,2013-08-23 03:05:00,
2013-08-23 06:10:00,89.1,80.1,29.59,WNW,293,3.1,4.7,75,0.00,,,0.00,WUHU216HW,2013-08-23 03:10:00,
2013-08-23 06:15:00,89.1,80.1,29.59,West,270,3.4,5.4,75,0.00,,,0.00,WUHU216HW,2013-08-23 03:15:00,
2013-08-23 06:20:00,89.1,80.1,29.59,WNW,293,4.0,5.4,75,0.00,,,0.00,WUHU216HW,2013-08-23 03:20:00,
2013-08-23 06:25:00,89.1,80.1,29.59,WNW,293,3.4,5.1,75,0.00,,,0.00,WUHU216HW,2013-08-23 03:25:00,
2013-08-23 06:30:00,89.3,80.3,29.59,WNW,293,2.2,5.1,75,0.00,,,0.00,WUHU216HW,2013-08-23 03:30:00,
2013-08-23 06:35:00,89.6,80.6,29.60,NW,315,2.7,4.7,75,0.00,,,0.00,WUHU216HW,2013-08-23 03:35:00,
2013-08-23 06:40:00,90.0,80.6,29.60,West,270,4.5,4.7,74,0.00,,,0.00,WUHU216HW,2013-08-23 03:40:00,
2013-08-23 06:45:00,90.4,80.9,29.60,West,270,3.8,4.7,74,0.00,,,0.00,WUHU216HW,2013-08-23 03:45:00,
2013-08-23 06:50:00,90.7,80.8,29.60,WNW,293,4.5,4.7,73,0.00,,,0.00,WUHU216HW,2013-08-23 03:50:00,
2013-08-23 06:55:00,91.1,81.2,29.60,WNW,293,5.4,6.5,73,0.00,,,0.00,WUHU216HW,2013-08-23 03:55:00,
2013-08-23 07:00:00,91.3,80.9,29.60,West,270,4.0,6.5,72,0.00,,,0.00,WUHU216HW,2013-08-23 04:00:00,
2013-08-23 07:01:00,91.3,80.9,29.60,WNW,293,3.6,6.5,72,0.00,,,0.00,WUHU216HW,2013-08-23 04:01:00,
2013-08-23 07:06:00,91.8,81.1,29.60,NW,315,1.8,5.8,71,0.00,,,0.00,WUHU216HW,2013-08-23 04:06:00,
2013-08-23 07:11:00,92.2,81.0,29.60,WNW,293,3.8,5.1,70,0.00,,,0.00,WUHU216HW,2013-08-23 04:11:00,
2013-08-23 07:16:00,92.5,81.4,29.60,WNW,293,2.5,5.1,70,0.00,,,0.00,WUHU216HW,2013-08-23 04:16:00,
2013-08-23 07:21:00,92.9,81.7,29.60,NNW,338,0.0,4.0,70,0.00,,,0.00,WUHU216HW,2013-08-23 04:21:00,
2013-08-23 07:26:00,93.8,82.1,29.61,WSW,248,0.9,2.5,69,0.00,,,0.00,WUHU216HW,2013-08-23 04:26:00,
2013-08-23 07:31:00,94.1,81.5,29.61,WNW,293,3.1,5.1,67,0.00,,,0.00,WUHU216HW,2013-08-23 04:31:00,
2013-08-23 07:36:00,94.1,81.0,29.61,WNW,293,2.0,5.1,66,0.00,,,0.00,WUHU216HW,2013-08-23 04:36:00,
2013-08-23 07:41:00,94.3,81.6,29.62,WSW,248,2.0,4.3,67,0.00,,,0.00,WUHU216HW,2013-08-23 04:41:00,
2013-08-23 07:46:00,94.3,81.6,29.62,West,270,1.8,4.3,67,0.00,,,0.00,WUHU216HW,2013-08-23 04:46:00,
2013-08-23 07:51:00,94.5,81.4,29.62,West,270,2.2,4.3,66,0.00,,,0.00,WUHU216HW,2013-08-23 04:51:00,
2013-08-23 07:56:00,94.3,81.2,29.62,WNW,293,4.7,6.3,66,0.00,,,0.00,WUHU216HW,2013-08-23 04:56:00,
2013-08-23 08:01:00,94.3,81.2,29.62,WSW,248,2.9,6.3,66,0.00,,,0.00,WUHU216HW,2013-08-23 05:01:00,
2013-08-23 08:06:00,94.5,81.4,29.62,WSW,248,4.3,6.0,66,0.00,,,0.00,WUHU216HW,2013-08-23 05:06:00,
2013-08-23 08:11:00,94.7,80.6,29.62,West,270,3.1,5.6,64,0.00,,,0.00,WUHU216HW,2013-08-23 05:11:00,
2013-08-23 08:16:00,94.5,80.4,29.62,West,270,6.3,6.7,64,0.00,,,0.00,WUHU216HW,2013-08-23 05:16:00,
2013-08-23 08:21:00,94.7,81.6,29.62,SW,225,1.8,6.7,66,0.00,,,0.00,WUHU216HW,2013-08-23 05:21:00,
2013-08-23 08:26:00,94.9,80.7,29.62,WNW,293,1.6,7.6,64,0.00,,,0.00,WUHU216HW,2013-08-23 05:26:00,
2013-08-23 08:31:00,95.2,81.1,29.62,WSW,248,5.4,7.6,64,0.00,,,0.00,WUHU216HW,2013-08-23 05:31:00,
2013-08-23 08:36:00,95.0,80.9,29.62,NW,315,4.7,6.7,64,0.00,,,0.00,WUHU216HW,2013-08-23 05:36:00,
2013-08-23 08:41:00,95.2,81.1,29.62,WSW,248,2.9,6.9,64,0.00,,,0.00,WUHU216HW,2013-08-23 05:41:00,
2013-08-23 08:46:00,95.4,80.7,29.62,NW,315,1.8,6.9,63,0.00,,,0.00,WUHU216HW,2013-08-23 05:46:00,
2013-08-23 08:51:00,95.8,81.1,29.62,WSW,248,6.9,7.6,63,0.00,,,0.00,WUHU216HW,2013-08-23 05:51:00,
2013-08-23 08:56:00,95.9,80.8,29.62,WNW,293,3.6,7.6,62,0.00,,,0.00,WUHU216HW,2013-08-23 05:56:00,
2013-08-23 09:01:00,95.9,79.8,29.62,West,270,4.3,8.1,60,0.00,,,0.00,WUHU216HW,2013-08-23 06:01:00,
2013-08-23 09:06:00,96.1,78.9,29.62,West,270,4.3,8.1,58,0.00,,,0.00,WUHU216HW,2013-08-23 06:06:00,
2013-08-23 09:11:00,96.5,80.3,29.62,SW,225,4.0,7.2,60,0.00,,,0.00,WUHU216HW,2013-08-23 06:11:00,
2013-08-23 09:16:00,96.7,80.5,29.62,SSE,158,1.1,7.2,60,0.00,,,0.00,WUHU216HW,2013-08-23 06:16:00,
2013-08-23 09:21:00,96.7,80.5,29.62,WSW,248,2.9,6.9,60,0.00,,,0.00,WUHU216HW,2013-08-23 06:21:00,
2013-08-23 09:26:00,96.8,79.6,29.62,WSW,248,3.4,6.9,58,0.00,,,0.00,WUHU216HW,2013-08-23 06:26:00,
2013-08-23 09:31:00,97.2,78.9,29.62,SW,225,4.5,6.3,56,0.00,,,0.00,WUHU216HW,2013-08-23 06:31:00,
2013-08-23 09:36:00,97.4,79.0,29.62,SW,225,1.1,6.9,56,0.00,,,0.00,WUHU216HW,2013-08-23 06:36:00,
2013-08-23 09:41:00,97.6,78.7,29.62,SSE,158,1.8,6.9,55,0.00,,,0.00,WUHU216HW,2013-08-23 06:41:00,
2013-08-23 09:46:00,97.7,78.8,29.63,SW,225,4.7,6.0,55,0.00,,,0.00,WUHU216HW,2013-08-23 06:46:00,
2013-08-23 09:51:00,97.9,78.4,29.62,SW,225,5.4,6.3,54,0.00,,,0.00,WUHU216HW,2013-08-23 06:51:00,
2013-08-23 09:56:00,98.1,77.5,29.62,West,270,2.5,6.3,52,0.00,,,0.00,WUHU216HW,2013-08-23 06:56:00,
2013-08-23 10:01:00,98.3,77.1,29.62,West,270,3.1,6.0,51,0.00,,,0.00,WUHU216HW,2013-08-23 07:01:00,
2013-08-23 10:06:00,98.5,76.1,29.62,WNW,293,2.9,6.0,49,0.00,,,0.00,WUHU216HW,2013-08-23 07:06:00,
2013-08-23 10:11:00,99.0,76.5,29.62,West,270,7.4,7.4,49,0.00,,,0.00,WUHU216HW,2013-08-23 07:11:00,
2013-08-23 10:16:00,99.4,75.5,29.62,WSW,248,4.0,7.8,47,0.00,,,0.00,WUHU216HW,2013-08-23 07:16:00,
2013-08-23 10:21:00,99.4,75.5,29.62,WSW,248,5.4,7.8,47,0.00,,,0.00,WUHU216HW,2013-08-23 07:21:00,
2013-08-23 10:26:00,99.7,75.2,29.62,West,270,8.7,8.7,46,0.00,,,0.00,WUHU216HW,2013-08-23 07:26:00,
2013-08-23 10:31:00,100.1,74.8,29.62,WNW,293,2.9,8.7,45,0.00,,,0.00,WUHU216HW,2013-08-23 07:31:00,
2013-08-23 10:36:00,100.4,75.8,29.62,SSW,203,1.1,8.7,46,0.00,,,0.00,WUHU216HW,2013-08-23 07:36:00,
2013-08-23 10:41:00,100.4,74.5,29.62,WNW,293,2.5,5.4,44,0.00,,,0.00,WUHU216HW,2013-08-23 07:41:00,
2013-08-23 10:46:00,100.6,73.4,29.62,NW,315,2.5,5.4,42,0.00,,,0.00,WUHU216HW,2013-08-23 07:46:00,
2013-08-23 10:51:00,101.2,71.7,29.62,NW,315,4.9,7.8,39,0.00,,,0.00,WUHU216HW,2013-08-23 07:51:00,
2013-08-23 10:56:00,101.5,71.9,29.61,WNW,293,4.3,7.8,39,0.00,,,0.00,WUHU216HW,2013-08-23 07:56:00,
2013-08-23 11:01:00,101.7,72.1,29.61,NNE,23,1.8,6.3,39,0.00,,,0.00,WUHU216HW,2013-08-23 08:01:00,
2013-08-23 11:06:00,102.2,71.7,29.61,West,270,4.0,6.5,38,0.00,,,0.00,WUHU216HW,2013-08-23 08:06:00,
2013-08-23 11:11:00,102.2,71.7,29.61,West,270,5.8,6.5,38,0.00,,,0.00,WUHU216HW,2013-08-23 08:11:00,
2013-08-23 11:16:00,102.4,71.9,29.60,WSW,248,4.5,6.0,38,0.00,,,0.00,WUHU216HW,2013-08-23 08:16:00,
2013-08-23 11:21:00,102.8,76.6,29.60,NNE,23,4.0,6.0,44,0.00,,,0.00,WUHU216HW,2013-08-23 08:21:00,
2013-08-23 11:26:00,102.8,78.6,29.60,WNW,293,4.0,5.6,47,0.00,,,0.00,WUHU216HW,2013-08-23 08:26:00,
2013-08-23 11:31:00,102.8,79.3,29.60,East,90,4.0,5.6,48,0.00,,,0.00,WUHU216HW,2013-08-23 08:31:00,
2013-08-23 11:36:00,103.0,78.8,29.60,North,0,5.4,7.4,47,0.00,,,0.00,WUHU216HW,2013-08-23 08:36:00,
2013-08-23 11:41:00,103.3,78.4,29.59,NNE,23,3.4,8.5,46,0.00,,,0.00,WUHU216HW,2013-08-23 08:41:00,
2013-08-23 11:46:00,103.7,78.8,29.59,NE,45,3.4,8.5,46,0.00,,,0.00,WUHU216HW,2013-08-23 08:46:00,
2013-08-23 11:51:00,103.9,80.2,29.59,NNW,338,6.3,8.5,48,0.00,,,0.00,WUHU216HW,2013-08-23 08:51:00,
2013-08-23 11:56:00,103.3,80.4,29.59,East,90,5.1,9.2,49,0.00,,,0.00,WUHU216HW,2013-08-23 08:56:00,
2013-08-23 12:01:00,103.5,79.9,29.58,ENE,68,9.6,9.6,48,0.00,,,0.00,WUHU216HW,2013-08-23 09:01:00,
2013-08-23 12:06:00,103.3,79.7,29.58,ENE,68,7.6,9.8,48,0.00,,,0.00,WUHU216HW,2013-08-23 09:06:00,
2013-08-23 12:11:00,104.0,79.8,29.58,NE,45,2.9,9.8,47,0.00,,,0.00,WUHU216HW,2013-08-23 09:11:00,
2013-08-23 12:16:00,104.4,79.4,29.58,North,0,2.7,7.6,46,0.00,,,0.00,WUHU216HW,2013-08-23 09:16:00,
2013-08-23 12:21:00,104.8,77.0,29.58,North,0,6.3,9.4,42,0.00,,,0.00,WUHU216HW,2013-08-23 09:21:00,
2013-08-23 12:26:00,104.8,79.1,29.58,ENE,68,4.5,9.4,45,0.00,,,0.00,WUHU216HW,2013-08-23 09:26:00,
2013-08-23 12:31:00,104.9,77.2,29.58,North,0,7.4,10.5,42,0.00,,,0.00,WUHU216HW,2013-08-23 09:31:00,
2013-08-23 12:36:00,105.1,80.1,29.57,ENE,68,8.1,10.5,46,0.00,,,0.00,WUHU216HW,2013-08-23 09:36:00,
2013-08-23 12:41:00,104.9,79.9,29.57,NE,45,5.4,9.4,46,0.00,,,0.00,WUHU216HW,2013-08-23 09:41:00,
2013-08-23 12:46:00,104.8,79.7,29.57,NNE,23,6.9,9.4,46,0.00,,,0.00,WUHU216HW,2013-08-23 09:46:00,
2013-08-23 12:51:00,104.9,79.3,29.57,NNE,23,2.9,9.8,45,0.00,,,0.00,WUHU216HW,2013-08-23 09:51:00,
2013-08-23 12:56:00,105.1,78.8,29.56,ESE,113,3.6,9.8,44,0.00,,,0.00,WUHU216HW,2013-08-23 09:56:00,
2013-08-23 13:01:00,105.1,80.1,29.56,ENE,68,6.9,9.2,46,0.00,,,0.00,WUHU216HW,2013-08-23 10:01:00,
2013-08-23 13:06:00,104.0,81.1,29.56,East,90,8.5,12.5,49,0.00,,,0.00,WUHU216HW,2013-08-23 10:06:00,
2013-08-23 13:11:00,103.5,81.3,29.56,SE,135,5.1,12.5,50,0.00,,,0.00,WUHU216HW,2013-08-23 10:11:00,
2013-08-23 13:16:00,103.7,80.7,29.56,ENE,68,8.1,8.7,49,0.00,,,0.00,WUHU216HW,2013-08-23 10:16:00,
2013-08-23 13:21:00,103.5,79.2,29.56,ESE,113,6.9,11.0,47,0.00,,,0.00,WUHU216HW,2013-08-23 10:21:00,
2013-08-23 13:26:00,103.5,77.2,29.56,East,90,7.2,11.0,44,0.00,,,0.00,WUHU216HW,2013-08-23 10:26:00,
2013-08-23 13:31:00,103.9,76.9,29.56,ESE,113,5.1,10.3,43,0.00,,,0.00,WUHU216HW,2013-08-23 10:31:00,
2013-08-23 13:36:00,104.2,78.6,29.56,ENE,68,4.0,8.5,45,0.00,,,0.00,WUHU216HW,2013-08-23 10:36:00,
2013-08-23 13:41:00,104.6,77.6,29.55,ENE,68,5.1,9.2,43,0.00,,,0.00,WUHU216HW,2013-08-23 10:41:00,
2013-08-23 13:46:00,105.1,77.4,29.55,NNE,23,6.3,9.6,42,0.00,,,0.00,WUHU216HW,2013-08-23 10:46:00,
2013-08-23 13:51:00,105.8,78.0,29.55,ESE,113,6.3,10.5,42,0.00,,,0.00,WUHU216HW,2013-08-23 10:51:00,
2013-08-23 13:56:00,106.2,78.4,29.55,ENE,68,3.4,10.5,42,0.00,,,0.00,WUHU216HW,2013-08-23 10:56:00,
2013-08-23 14:01:00,106.6,77.3,29.54,NNE,23,8.1,8.5,40,0.00,,,0.00,WUHU216HW,2013-08-23 11:01:00,
2013-08-23 14:06:00,106.6,77.3,29.54,NNE,23,3.4,10.3,40,0.00,,,0.00,WUHU216HW,2013-08-23 11:06:00,
2013-08-23 14:11:00,106.6,77.3,29.54,NNE,23,4.9,10.3,40,0.00,,,0.00,WUHU216HW,2013-08-23 11:11:00,
2013-08-23 14:16:00,106.6,78.7,29.54,ENE,68,7.4,8.5,42,0.00,,,0.00,WUHU216HW,2013-08-23 11:16:00,
2013-08-23 14:21:00,106.6,78.7,29.54,East,90,8.1,10.1,42,0.00,,,0.00,WUHU216HW,2013-08-23 11:21:00,
2013-08-23 14:26:00,106.2,79.0,29.54,NE,45,5.4,10.1,43,0.00,,,0.00,WUHU216HW,2013-08-23 11:26:00,
2013-08-23 14:31:00,105.7,79.3,29.54,East,90,8.5,9.6,44,0.00,,,0.00,WUHU216HW,2013-08-23 11:31:00,
2013-08-23 14:36:00,105.1,79.4,29.54,NNE,23,4.5,10.3,45,0.00,,,0.00,WUHU216HW,2013-08-23 11:36:00,
2013-08-23 14:41:00,105.1,79.4,29.54,ENE,68,8.1,10.3,45,0.00,,,0.00,WUHU216HW,2013-08-23 11:41:00,
2013-08-23 14:46:00,104.9,79.3,29.54,ESE,113,10.3,11.4,45,0.00,,,0.00,WUHU216HW,2013-08-23 11:46:00,
2013-08-23 14:51:00,104.0,79.0,29.54,NE,45,7.2,11.6,46,0.00,,,0.00,WUHU216HW,2013-08-23 11:51:00,
2013-08-23 14:56:00,103.9,79.6,29.54,ENE,68,12.8,12.8,47,0.00,,,0.00,WUHU216HW,2013-08-23 11:56:00,
2013-08-23 15:01:00,103.3,79.1,29.54,NNE,23,3.1,12.8,47,0.00,,,0.00,WUHU216HW,2013-08-23 12:01:00,
2013-08-23 15:06:00,103.9,78.9,29.54,NE,45,4.3,12.8,46,0.00,,,0.00,WUHU216HW,2013-08-23 12:06:00,
2013-08-23 15:11:00,104.2,79.2,29.54,ENE,68,8.5,8.5,46,0.00,,,0.00,WUHU216HW,2013-08-23 12:11:00,
2013-08-23 15:16:00,104.4,80.1,29.54,NE,45,4.7,8.5,47,0.00,,,0.00,WUHU216HW,2013-08-23 12:16:00,
2013-08-23 15:21:00,104.4,80.1,29.54,NNW,338,2.5,8.5,47,0.00,,,0.00,WUHU216HW,2013-08-23 12:21:00,
2013-08-23 15:26:00,104.2,79.2,29.54,NNW,338,7.4,12.5,46,0.00,,,0.00,WUHU216HW,2013-08-23 12:26:00,
2013-08-23 15:31:00,103.9,80.2,29.54,North,0,9.4,12.8,48,0.00,,,0.00,WUHU216HW,2013-08-23 12:31:00,
2013-08-23 15:36:00,103.5,80.6,29.54,NNE,23,10.5,12.8,49,0.00,,,0.00,WUHU216HW,2013-08-23 12:36:00,
2013-08-23 15:41:00,103.3,81.1,29.54,NNE,23,6.9,11.9,50,0.00,,,0.00,WUHU216HW,2013-08-23 12:41:00,
2013-08-23 15:46:00,103.1,81.5,29.54,NNE,23,5.8,12.8,51,0.00,,,0.00,WUHU216HW,2013-08-23 12:46:00,
2013-08-23 15:51:00,103.1,82.1,29.54,NE,45,4.0,12.8,52,0.00,,,0.00,WUHU216HW,2013-08-23 12:51:00,
2013-08-23 15:56:00,103.0,81.9,29.54,NW,315,3.4,7.4,52,0.00,,,0.00,WUHU216HW,2013-08-23 12:56:00,
2013-08-23 16:01:00,102.4,82.0,29.54,North,0,5.4,9.8,53,0.00,,,0.00,WUHU216HW,2013-08-23 13:01:00,
2013-08-23 16:06:00,102.1,82.3,29.54,NNW,338,4.5,9.8,54,0.00,,,0.00,WUHU216HW,2013-08-23 13:06:00,
2013-08-23 16:11:00,102.8,82.9,29.53,North,0,10.7,12.8,54,0.00,,,0.00,WUHU216HW,2013-08-23 13:11:00,
2013-08-23 16:17:00,103.7,83.2,29.53,North,0,7.4,12.8,53,0.00,,,0.00,WUHU216HW,2013-08-23 13:17:00,
2013-08-23 16:22:00,104.4,83.3,29.53,North,0,12.1,12.5,52,0.00,,,0.00,WUHU216HW,2013-08-23 13:22:00,
2013-08-23 16:27:00,104.0,83.4,29.53,NW,315,5.1,12.5,53,0.00,,,0.00,WUHU216HW,2013-08-23 13:27:00,
2013-08-23 16:32:00,103.3,83.3,29.54,NNE,23,11.6,11.6,54,0.00,,,0.00,WUHU216HW,2013-08-23 13:32:00,
2013-08-23 16:37:00,103.3,83.3,29.54,North,0,7.8,13.2,54,0.00,,,0.00,WUHU216HW,2013-08-23 13:37:00,
2013-08-23 16:42:00,103.3,83.3,29.54,North,0,9.6,14.5,54,0.00,,,0.00,WUHU216HW,2013-08-23 13:42:00,
2013-08-23 16:47:00,103.1,83.3,29.54,NNE,23,4.0,14.5,54,0.00,,,0.00,WUHU216HW,2013-08-23 13:47:00,
2013-08-23 16:52:00,103.0,84.3,29.54,NNW,338,11.4,12.8,56,0.00,,,0.00,WUHU216HW,2013-08-23 13:52:00,
2013-08-23 16:57:00,102.4,84.3,29.54,NNE,23,8.5,12.8,57,0.00,,,0.00,WUHU216HW,2013-08-23 13:57:00,
2013-08-23 17:02:00,101.9,84.3,29.54,North,0,11.9,11.9,58,0.00,,,0.00,WUHU216HW,2013-08-23 14:02:00,
2013-08-23 17:07:00,101.2,84.3,29.54,North,0,7.2,12.1,59,0.00,,,0.00,WUHU216HW,2013-08-23 14:07:00,
2013-08-23 17:12:00,100.8,84.4,29.54,NW,315,5.4,12.1,60,0.00,,,0.00,WUHU216HW,2013-08-23 14:12:00,
2013-08-23 17:17:00,100.6,83.7,29.54,North,0,11.4,11.4,59,0.00,,,0.00,WUHU216HW,2013-08-23 14:17:00,
2013-08-23 17:22:00,100.3,82.8,29.54,NNW,338,9.2,11.6,58,0.00,,,0.00,WUHU216HW,2013-08-23 14:22:00,
2013-08-23 17:27:00,99.7,82.3,29.54,NNE,23,7.6,11.6,58,0.00,,,0.00,WUHU216HW,2013-08-23 14:27:00,
2013-08-23 17:32:00,99.7,82.3,29.54,NW,315,6.7,10.5,58,0.00,,,0.00,WUHU216HW,2013-08-23 14:32:00,
2013-08-23 17:37:00,99.7,82.9,29.55,North,0,11.9,13.4,59,0.00,,,0.00,WUHU216HW,2013-08-23 14:37:00,
2013-08-23 17:42:00,99.4,83.6,29.55,NNE,23,7.6,13.4,61,0.00,,,0.00,WUHU216HW,2013-08-23 14:42:00,
2013-08-23 17:47:00,99.0,82.8,29.55,North,0,5.8,11.9,60,0.00,,,0.00,WUHU216HW,2013-08-23 14:47:00,
2013-08-23 17:52:00,99.0,82.2,29.55,North,0,9.2,12.1,59,0.00,,,0.00,WUHU216HW,2013-08-23 14:52:00,
2013-08-23 17:57:00,99.0,82.8,29.55,NNE,23,4.7,12.1,60,0.00,,,0.00,WUHU216HW,2013-08-23 14:57:00,
2013-08-23 18:02:00,99.0,76.5,29.55,NW,315,7.4,11.0,49,0.00,,,0.00,WUHU216HW,2013-08-23 15:02:00,
2013-08-23 18:07:00,99.7,71.2,29.55,NE,45,4.7,11.0,40,0.00,,,0.00,WUHU216HW,2013-08-23 15:07:00,
2013-08-23 18:12:00,100.1,69.8,29.55,North,0,4.3,11.4,38,0.00,,,0.00,WUHU216HW,2013-08-23 15:12:00,
2013-08-23 18:17:00,100.3,65.9,29.55,WNW,293,4.5,11.4,33,0.00,,,0.00,WUHU216HW,2013-08-23 15:17:00,
2013-08-23 18:22:00,100.6,65.3,29.56,NNW,338,9.2,10.3,32,0.00,,,0.00,WUHU216HW,2013-08-23 15:22:00,
2013-08-23 18:27:00,100.6,64.5,29.56,WNW,293,7.6,10.1,31,0.00,,,0.00,WUHU216HW,2013-08-23 15:27:00,
2013-08-23 18:32:00,100.6,64.5,29.56,North,0,6.3,9.8,31,0.00,,,0.00,WUHU216HW,2013-08-23 15:32:00,
2013-08-23 18:37:00,100.6,65.3,29.56,NNW,338,5.4,9.8,32,0.00,,,0.00,WUHU216HW,2013-08-23 15:37:00,
2013-08-23 18:42:00,100.4,66.1,29.56,North,0,3.4,8.5,33,0.00,,,0.00,WUHU216HW,2013-08-23 15:42:00,
2013-08-23 18:47:00,100.4,66.9,29.56,NNW,338,4.0,7.8,34,0.00,,,0.00,WUHU216HW,2013-08-23 15:47:00,
2013-08-23 18:52:00,100.3,67.5,29.56,NNW,338,4.0,7.8,35,0.00,,,0.00,WUHU216HW,2013-08-23 15:52:00,
2013-08-23 18:57:00,100.1,68.2,29.56,North,0,5.4,7.8,36,0.00,,,0.00,WUHU216HW,2013-08-23 15:57:00,
2013-08-23 19:02:00,99.9,69.7,29.57,NNE,23,4.5,7.8,38,0.00,,,0.00,WUHU216HW,2013-08-23 16:02:00,
2013-08-23 19:07:00,99.7,69.5,29.57,North,0,5.1,7.6,38,0.00,,,0.00,WUHU216HW,2013-08-23 16:07:00,
2013-08-23 19:12:00,99.7,69.5,29.57,North,0,3.8,7.6,38,0.00,,,0.00,WUHU216HW,2013-08-23 16:12:00,
2013-08-23 19:17:00,99.7,66.3,29.57,NW,315,6.7,6.7,34,0.00,,,0.00,WUHU216HW,2013-08-23 16:17:00,
2013-08-23 19:22:00,100.1,65.7,29.57,NW,315,4.0,8.7,33,0.00,,,0.00,WUHU216HW,2013-08-23 16:22:00,
2013-08-23 19:27:00,100.4,65.2,29.58,NW,315,6.5,8.9,32,0.00,,,0.00,WUHU216HW,2013-08-23 16:27:00,
2013-08-23 19:32:00,100.4,63.5,29.58,NNW,338,5.6,8.9,30,0.00,,,0.00,WUHU216HW,2013-08-23 16:32:00,
2013-08-23 19:37:00,100.4,64.4,29.58,NNW,338,3.4,9.8,31,0.00,,,0.00,WUHU216HW,2013-08-23 16:37:00,
2013-08-23 19:42:00,100.1,64.1,29.58,NW,315,2.7,9.8,31,0.00,,,0.00,WUHU216HW,2013-08-23 16:42:00,
2013-08-23 19:47:00,99.9,63.9,29.58,NNW,338,3.8,5.8,31,0.00,,,0.00,WUHU216HW,2013-08-23 16:47:00,
2013-08-23 19:52:00,99.7,63.7,29.59,NNW,338,4.3,5.4,31,0.00,,,0.00,WUHU216HW,2013-08-23 16:52:00,
2013-08-23 19:57:00,99.7,63.7,29.58,NW,315,4.7,6.7,31,0.00,,,0.00,WUHU216HW,2013-08-23 16:57:00,
2013-08-23 20:02:00,99.5,63.5,29.59,NW,315,6.9,6.9,31,0.00,,,0.00,WUHU216HW,2013-08-23 17:02:00,
2013-08-23 20:07:00,99.5,63.5,29.59,NNW,338,4.5,6.9,31,0.00,,,0.00,WUHU216HW,2013-08-23 17:07:00,
2013-08-23 20:12:00,99.5,62.7,29.59,NNW,338,8.5,10.5,30,0.00,,,0.00,WUHU216HW,2013-08-23 17:12:00,
2013-08-23 20:17:00,99.7,61.7,29.59,NW,315,6.7,10.5,29,0.00,,,0.00,WUHU216HW,2013-08-23 17:17:00,
2013-08-23 20:22:00,99.7,62.9,29.59,NNW,338,8.3,11.0,30,0.00,,,0.00,WUHU216HW,2013-08-23 17:22:00,
2013-08-23 20:27:00,99.7,63.7,29.59,North,0,6.9,11.0,31,0.00,,,0.00,WUHU216HW,2013-08-23 17:27:00,
2013-08-23 20:32:00,99.5,63.5,29.59,NW,315,4.7,10.7,31,0.00,,,0.00,WUHU216HW,2013-08-23 17:32:00,
2013-08-23 20:37:00,99.4,63.4,29.59,NNW,338,8.1,10.7,31,0.00,,,0.00,WUHU216HW,2013-08-23 17:37:00,
2013-08-23 20:42:00,99.2,64.1,29.60,NNW,338,10.5,11.2,32,0.00,,,0.00,WUHU216HW,2013-08-23 17:42:00,
2013-08-23 20:47:00,99.0,63.9,29.60,NNW,338,6.7,11.2,32,0.00,,,0.00,WUHU216HW,2013-08-23 17:47:00,
2013-08-23 20:52:00,98.8,63.7,29.60,NW,315,5.6,11.0,32,0.00,,,0.00,WUHU216HW,2013-08-23 17:52:00,
2013-08-23 20:57:00,98.6,64.5,29.60,NNW,338,4.7,9.2,33,0.00,,,0.00,WUHU216HW,2013-08-23 17:57:00,
2013-08-23 21:02:00,98.5,65.1,29.60,NNW,338,8.7,9.2,34,0.00,,,0.00,WUHU216HW,2013-08-23 18:02:00,
2013-08-23 21:07:00,98.3,64.9,29.60,NW,315,6.0,8.7,34,0.00,,,0.00,WUHU216HW,2013-08-23 18:07:00,
2013-08-23 21:12:00,98.1,65.6,29.60,NW,315,4.5,8.7,35,0.00,,,0.00,WUHU216HW,2013-08-23 18:12:00,
2013-08-23 21:17:00,97.9,66.2,29.60,NNE,23,4.5,6.5,36,0.00,,,0.00,WUHU216HW,2013-08-23 18:17:00,
2013-08-23 21:22:00,97.6,67.6,29.60,NNW,338,3.1,6.7,38,0.00,,,0.00,WUHU216HW,2013-08-23 18:22:00,
2013-08-23 21:27:00,97.4,67.4,29.60,NNE,23,4.0,8.5,38,0.00,,,0.00,WUHU216HW,2013-08-23 18:27:00,
2013-08-23 21:32:00,97.2,68.0,29.60,NNE,23,8.1,8.5,39,0.00,,,0.00,WUHU216HW,2013-08-23 18:32:00,
2013-08-23 21:37:00,97.0,68.8,29.60,NW,315,4.3,8.1,40,0.00,,,0.00,WUHU216HW,2013-08-23 18:37:00,
2013-08-23 21:42:00,96.8,68.6,29.60,NNE,23,5.1,8.1,40,0.00,,,0.00,WUHU216HW,2013-08-23 18:42:00,
2013-08-23 21:47:00,96.5,69.6,29.60,NNW,338,6.3,6.9,42,0.00,,,0.00,WUHU216HW,2013-08-23 18:47:00,
2013-08-23 21:52:00,96.3,69.4,29.60,NNW,338,3.1,6.9,42,0.00,,,0.00,WUHU216HW,2013-08-23 18:52:00,
2013-08-23 21:57:00,96.1,69.3,29.60,North,0,2.9,6.5,42,0.00,,,0.00,WUHU216HW,2013-08-23 18:57:00,
2013-08-23 22:02:00,95.9,69.1,29.60,North,0,1.8,5.1,42,0.00,,,0.00,WUHU216HW,2013-08-23 19:02:00,
2013-08-23 22:07:00,95.9,69.1,29.60,North,0,5.1,5.1,42,0.00,,,0.00,WUHU216HW,2013-08-23 19:07:00,
2013-08-23 22:12:00,95.8,68.3,29.60,NNW,338,2.0,5.1,41,0.00,,,0.00,WUHU216HW,2013-08-23 19:12:00,
2013-08-23 22:17:00,95.8,67.6,29.60,NNE,23,2.0,4.0,40,0.00,,,0.00,WUHU216HW,2013-08-23 19:17:00,
2013-08-23 22:22:00,95.8,67.6,29.60,North,0,2.5,4.0,40,0.00,,,0.00,WUHU216HW,2013-08-23 19:22:00,
2013-08-23 22:27:00,95.9,67.0,29.60,North,0,2.5,4.0,39,0.00,,,0.00,WUHU216HW,2013-08-23 19:27:00,
2013-08-23 22:32:00,95.8,66.8,29.60,NNW,338,2.7,4.0,39,0.00,,,0.00,WUHU216HW,2013-08-23 19:32:00,
2013-08-23 22:37:00,95.8,66.8,29.60,North,0,2.5,3.1,39,0.00,,,0.00,WUHU216HW,2013-08-23 19:37:00,
2013-08-23 22:42:00,95.8,66.0,29.60,North,0,1.1,2.7,38,0.00,,,0.00,WUHU216HW,2013-08-23 19:42:00,
2013-08-23 22:47:00,95.6,66.6,29.59,NNW,338,0.4,2.7,39,0.00,,,0.00,WUHU216HW,2013-08-23 19:47:00,
2013-08-23 22:52:00,95.4,66.5,29.59,NW,315,1.6,1.8,39,0.00,,,0.00,WUHU216HW,2013-08-23 19:52:00,
2013-08-23 22:57:00,95.4,65.7,29.59,WNW,293,1.1,1.8,38,0.00,,,0.00,WUHU216HW,2013-08-23 19:57:00,
2013-08-23 23:02:00,95.4,65.7,29.59,NW,315,2.0,2.5,38,0.00,,,0.00,WUHU216HW,2013-08-23 20:02:00,
2013-08-23 23:07:00,95.4,65.7,29.59,NW,315,1.1,2.5,38,0.00,,,0.00,WUHU216HW,2013-08-23 20:07:00,
2013-08-23 23:12:00,95.2,66.3,29.59,WNW,293,2.5,2.5,39,0.00,,,0.00,WUHU216HW,2013-08-23 20:12:00,
2013-08-23 23:17:00,95.0,67.6,29.59,WNW,293,2.9,3.1,41,0.00,,,0.00,WUHU216HW,2013-08-23 20:17:00,
2013-08-23 23:22:00,94.9,67.5,29.58,NW,315,3.8,3.8,41,0.00,,,0.00,WUHU216HW,2013-08-23 20:22:00,
2013-08-23 23:27:00,94.7,68.0,29.58,NW,315,2.2,4.0,42,0.00,,,0.00,WUHU216HW,2013-08-23 20:27:00,
2013-08-23 23:32:00,94.3,67.6,29.58,NW,315,4.5,4.7,42,0.00,,,0.00,WUHU216HW,2013-08-23 20:32:00,
2013-08-23 23:37:00,94.1,68.1,29.58,NW,315,4.7,4.7,43,0.00,,,0.00,WUHU216HW,2013-08-23 20:37:00,
2013-08-23 23:42:00,93.8,67.8,29.58,NW,315,3.4,4.7,43,0.00,,,0.00,WUHU216HW,2013-08-23 20:42:00,
2013-08-23 23:47:00,93.6,67.0,29.58,NW,315,2.7,4.7,42,0.00,,,0.00,WUHU216HW,2013-08-23 20:47:00,
2013-08-23 23:52:00,93.4,66.8,29.58,NNW,338,2.2,4.0,42,0.00,,,0.00,WUHU216HW,2013-08-23 20:52:00,
2013-08-23 23:57:00,93.2,66.6,29.58,WNW,293,2.9,3.8,42,0.00,,,0.00,WUHU216HW,2013-08-23 20:57:00,